JTA128 ROMY-RJBB

Flight info

Callsign JTA128
Flight time N/A
Altitude 35000
Route FREED Y57 AZAMA Y579 ONC B597 RURIK Y53 NIXOV
Aircraft B738/M-SDE2E3FGHIRWXY/LB1

Departure

Time 2026-05-06 09:19
Airport Miyako Airport (ROMY)

Arrival

Time N/A
Airport Kansai International Airport (RJBB)
Time Latitude Longitude Altitude Speed Heading
2026-05-06 08:56 24.78024 125.29711 145 ft 0 kts 127°
2026-05-06 09:11 24.78030 125.29701 145 ft 2 kts 127°
2026-05-06 09:11 24.78039 125.29689 145 ft 2 kts 128°
2026-05-06 09:11 24.78047 125.29678 145 ft 2 kts 132°
2026-05-06 09:12 24.78055 125.29668 145 ft 1 kts 146°
2026-05-06 09:12 24.78061 125.29665 145 ft 1 kts 170°
2026-05-06 09:12 24.78067 125.29664 145 ft 1 kts 194°
2026-05-06 09:12 24.78073 125.29666 145 ft 1 kts 207°
2026-05-06 09:13 24.78078 125.29669 145 ft 1 kts 213°
2026-05-06 09:13 24.78082 125.29672 145 ft 1 kts 215°
2026-05-06 09:13 24.78083 125.29673 145 ft 0 kts 215°
2026-05-06 09:14 24.78083 125.29672 145 ft 0 kts 215°
2026-05-06 09:14 24.78070 125.29662 144 ft 4 kts 215°
2026-05-06 09:15 24.78033 125.29631 144 ft 9 kts 218°
2026-05-06 09:15 24.77996 125.29565 142 ft 12 kts 287°
2026-05-06 09:15 24.78050 125.29485 144 ft 14 kts 308°
2026-05-06 09:15 24.78109 125.29397 145 ft 12 kts 294°
2026-05-06 09:16 24.78065 125.29324 145 ft 13 kts 218°
2026-05-06 09:16 24.77983 125.29252 143 ft 17 kts 218°
2026-05-06 09:16 24.77877 125.29161 141 ft 21 kts 218°
2026-05-06 09:16 24.77759 125.29059 142 ft 22 kts 218°
2026-05-06 09:17 24.77636 125.28967 142 ft 17 kts 192°
2026-05-06 09:17 24.77577 125.28926 144 ft 4 kts 264°
2026-05-06 09:17 24.77589 125.28908 144 ft 3 kts 347°
2026-05-06 09:17 24.77607 125.28927 143 ft 6 kts 52°
2026-05-06 09:18 24.77628 125.28947 143 ft 2 kts 38°
2026-05-06 09:18 24.77706 125.29015 142 ft 45 kts 38°
2026-05-06 09:18 24.78159 125.29406 145 ft 120 kts 38°
2026-05-06 09:18 24.78947 125.30124 334 ft 164 kts 43°
2026-05-06 09:19 24.79820 125.30958 1144 ft 169 kts 48°
2026-05-06 09:19 24.80514 125.32040 1903 ft 176 kts 58°
2026-05-06 09:19 24.81177 125.33221 2551 ft 190 kts 58°
2026-05-06 09:19 24.81900 125.34539 3105 ft 209 kts 59°
2026-05-06 09:20 24.82652 125.35927 3810 ft 217 kts 59°
2026-05-06 09:20 24.83482 125.37445 4054 ft 247 kts 59°
2026-05-06 09:20 24.84428 125.39161 4393 ft 274 kts 59°
2026-05-06 09:20 24.85439 125.40990 5117 ft 284 kts 58°
2026-05-06 09:21 24.86480 125.42868 5930 ft 290 kts 58°
2026-05-06 09:21 24.87540 125.44777 6760 ft 294 kts 57°
2026-05-06 09:21 24.88616 125.46713 7551 ft 299 kts 57°
2026-05-06 09:21 24.89708 125.48676 8343 ft 303 kts 57°
2026-05-06 09:22 24.90817 125.50671 9153 ft 308 kts 57°
2026-05-06 09:22 24.91941 125.52691 9941 ft 312 kts 57°
2026-05-06 09:22 24.93094 125.54764 10484 ft 326 kts 57°
2026-05-06 09:22 24.94329 125.56982 10686 ft 351 kts 57°
2026-05-06 09:23 24.95625 125.59313 11223 ft 361 kts 57°
2026-05-06 09:23 24.96943 125.61687 11937 ft 365 kts 57°
2026-05-06 09:23 24.98275 125.64088 12662 ft 369 kts 57°
2026-05-06 09:23 24.99604 125.66485 13334 ft 374 kts 57°
2026-05-06 09:24 25.00985 125.68977 13999 ft 379 kts 57°
2026-05-06 09:24 25.02367 125.71472 14632 ft 383 kts 57°
2026-05-06 09:24 25.03759 125.73985 15309 ft 385 kts 57°
2026-05-06 09:24 25.05160 125.76516 15971 ft 388 kts 56°
2026-05-06 09:25 25.06569 125.79062 16604 ft 391 kts 56°
2026-05-06 09:25 25.07975 125.81603 17233 ft 395 kts 56°
2026-05-06 09:25 25.09411 125.84201 17858 ft 398 kts 56°
2026-05-06 09:25 25.10858 125.86820 18440 ft 401 kts 56°
2026-05-06 09:26 25.12312 125.89454 18991 ft 404 kts 56°
2026-05-06 09:26 25.13779 125.92112 19533 ft 407 kts 56°
2026-05-06 09:26 25.15259 125.94795 20064 ft 410 kts 56°
2026-05-06 09:26 25.16748 125.97496 20604 ft 413 kts 56°
2026-05-06 09:27 25.18244 126.00212 21132 ft 416 kts 56°
2026-05-06 09:27 25.19753 126.02953 21652 ft 419 kts 56°
2026-05-06 09:27 25.21271 126.05711 22145 ft 423 kts 56°
2026-05-06 09:27 25.22807 126.08503 22622 ft 427 kts 56°
2026-05-06 09:28 25.24355 126.11321 23109 ft 431 kts 56°
2026-05-06 09:28 25.25916 126.14162 23573 ft 434 kts 56°
2026-05-06 09:28 25.27489 126.17028 23966 ft 438 kts 56°
2026-05-06 09:28 25.29068 126.19906 24370 ft 440 kts 56°
2026-05-06 09:29 25.30658 126.22808 24790 ft 442 kts 56°
2026-05-06 09:29 25.32258 126.25728 25196 ft 445 kts 56°
2026-05-06 09:29 25.33860 126.28654 25599 ft 447 kts 56°
2026-05-06 09:29 25.35474 126.31605 25991 ft 450 kts 56°
2026-05-06 09:30 25.37098 126.34573 26367 ft 452 kts 56°
2026-05-06 09:30 25.38729 126.37560 26734 ft 455 kts 56°
2026-05-06 09:30 25.40370 126.40563 27104 ft 457 kts 56°
2026-05-06 09:30 25.42014 126.43577 27456 ft 460 kts 56°
2026-05-06 09:31 25.43672 126.46617 27812 ft 463 kts 56°
2026-05-06 09:31 25.45339 126.49676 28142 ft 465 kts 56°
2026-05-06 09:31 25.47015 126.52753 28472 ft 468 kts 57°
2026-05-06 09:31 25.48698 126.55840 28790 ft 471 kts 57°
2026-05-06 09:32 25.50402 126.58947 29121 ft 473 kts 57°
2026-05-06 09:32 25.52118 126.62068 29429 ft 476 kts 57°
2026-05-06 09:32 25.53843 126.65207 29743 ft 478 kts 57°
2026-05-06 09:32 25.55572 126.68357 30040 ft 481 kts 57°
2026-05-06 09:33 25.57314 126.71534 30284 ft 483 kts 57°
2026-05-06 09:33 25.59065 126.74733 30536 ft 486 kts 57°
2026-05-06 09:33 25.60818 126.77939 30788 ft 488 kts 58°
2026-05-06 09:33 25.62541 126.81091 31086 ft 488 kts 58°
2026-05-06 09:34 25.64328 126.84365 31454 ft 487 kts 58°
2026-05-06 09:34 25.66079 126.87574 31818 ft 486 kts 58°
2026-05-06 09:34 25.67802 126.90733 32142 ft 486 kts 58°
2026-05-06 09:34 25.69552 126.93942 32433 ft 486 kts 58°
2026-05-06 09:35 25.71302 126.97155 32739 ft 487 kts 58°
2026-05-06 09:35 25.73046 127.00360 33066 ft 486 kts 58°
2026-05-06 09:35 25.74794 127.03574 33362 ft 486 kts 59°
2026-05-06 09:35 25.76543 127.06792 33643 ft 487 kts 59°
2026-05-06 09:36 25.78292 127.10013 33935 ft 487 kts 59°
2026-05-06 09:36 25.80035 127.13226 34206 ft 487 kts 59°
2026-05-06 09:36 25.81783 127.16450 34447 ft 487 kts 59°
2026-05-06 09:36 25.83530 127.19674 34687 ft 487 kts 59°
2026-05-06 09:37 25.85269 127.22888 34955 ft 486 kts 59°
2026-05-06 09:37 25.88200 127.28306 34995 ft 490 kts 59°
2026-05-06 09:38 25.91697 127.34772 34992 ft 486 kts 59°
2026-05-06 09:38 25.95168 127.41187 34989 ft 483 kts 60°
2026-05-06 09:39 25.98600 127.47541 34987 ft 482 kts 60°
2026-05-06 09:39 26.02037 127.53917 34981 ft 481 kts 60°
2026-05-06 09:40 26.05475 127.60304 34975 ft 481 kts 60°
2026-05-06 09:40 26.10635 127.69906 34972 ft 483 kts 61°
2026-05-06 09:41 26.14117 127.76326 34970 ft 486 kts 57°
2026-05-06 09:41 26.18678 127.81875 35009 ft 489 kts 39°
2026-05-06 09:42 26.24347 127.86054 35010 ft 489 kts 31°
2026-05-06 09:42 26.30175 127.89999 34984 ft 490 kts 31°
2026-05-06 09:43 26.35982 127.93982 34989 ft 491 kts 31°
2026-05-06 09:43 26.41774 127.98020 34993 ft 491 kts 32°
2026-05-06 09:44 26.47552 128.02073 34995 ft 491 kts 32°
2026-05-06 09:44 26.53329 128.06130 35007 ft 490 kts 32°
2026-05-06 09:45 26.59091 128.10179 35016 ft 489 kts 32°
2026-05-06 09:45 26.64856 128.14233 35012 ft 489 kts 32°
2026-05-06 09:46 26.70604 128.18280 35010 ft 488 kts 32°
2026-05-06 09:46 26.76347 128.22328 35015 ft 487 kts 32°
2026-05-06 09:47 26.82072 128.26370 35008 ft 487 kts 32°
2026-05-06 09:47 26.87802 128.30419 34998 ft 487 kts 32°
2026-05-06 09:48 26.93525 128.34467 34993 ft 486 kts 32°
2026-05-06 09:48 26.99229 128.38508 34995 ft 485 kts 32°
2026-05-06 09:49 27.04933 128.42554 34996 ft 485 kts 33°
2026-05-06 09:49 27.10627 128.46598 34991 ft 485 kts 33°
2026-05-06 09:50 27.16326 128.50649 35000 ft 484 kts 33°
2026-05-06 09:50 27.22016 128.54700 35009 ft 485 kts 33°
2026-05-06 09:51 27.27676 128.58735 35006 ft 485 kts 33°
2026-05-06 09:51 27.33370 128.62799 34999 ft 485 kts 33°
2026-05-06 09:52 27.39075 128.66875 34993 ft 486 kts 33°
2026-05-06 09:52 27.44674 128.71133 34987 ft 485 kts 41°
2026-05-06 09:53 27.49711 128.76170 34992 ft 485 kts 44°
2026-05-06 09:53 27.54697 128.81299 35001 ft 485 kts 44°
2026-05-06 09:54 27.59719 128.86399 35011 ft 486 kts 43°
2026-05-06 09:54 27.64758 128.91477 35020 ft 486 kts 43°
2026-05-06 09:55 27.69804 128.96562 35033 ft 487 kts 43°
2026-05-06 09:55 27.74859 129.01669 35020 ft 488 kts 43°
2026-05-06 09:56 27.79914 129.06783 35027 ft 488 kts 43°
2026-05-06 09:56 27.84968 129.11892 35030 ft 488 kts 43°
2026-05-06 09:57 27.90041 129.16999 35028 ft 488 kts 43°
2026-05-06 09:57 27.95108 129.22105 35031 ft 488 kts 43°
2026-05-06 09:58 28.00179 129.27226 35029 ft 488 kts 43°
2026-05-06 09:58 28.05240 129.32347 35029 ft 488 kts 43°
2026-05-06 09:59 28.10307 129.37481 35028 ft 489 kts 43°
2026-05-06 09:59 28.15371 129.42619 35029 ft 489 kts 43°
2026-05-06 10:00 28.20434 129.47755 35017 ft 489 kts 43°
2026-05-06 10:00 28.25485 129.52853 35001 ft 489 kts 43°
2026-05-06 10:01 28.30565 129.57985 34989 ft 489 kts 43°
2026-05-06 10:01 28.35651 129.63135 34971 ft 490 kts 43°
2026-05-06 10:02 28.40740 129.68296 34966 ft 490 kts 43°
2026-05-06 10:02 28.46243 129.72874 34960 ft 493 kts 27°
2026-05-06 10:03 28.52390 129.76366 34973 ft 495 kts 25°
2026-05-06 10:03 28.58563 129.79835 34987 ft 496 kts 26°
2026-05-06 10:04 28.64723 129.83398 35002 ft 497 kts 26°
2026-05-06 10:04 28.70869 129.86983 35020 ft 497 kts 26°
2026-05-06 10:05 28.77027 129.90565 35032 ft 496 kts 26°
2026-05-06 10:05 28.83175 129.94134 35028 ft 496 kts 26°
2026-05-06 10:06 28.89322 129.97708 35028 ft 495 kts 26°
2026-05-06 10:06 28.95461 130.01283 35031 ft 495 kts 26°
2026-05-06 10:07 29.01585 130.04857 35031 ft 495 kts 26°
2026-05-06 10:07 29.07716 130.08438 35032 ft 495 kts 26°
2026-05-06 10:08 29.13840 130.12021 35031 ft 495 kts 26°
2026-05-06 10:08 29.19976 130.15615 35035 ft 495 kts 26°
2026-05-06 10:09 29.26110 130.19214 35031 ft 496 kts 26°
2026-05-06 10:09 29.32188 130.22985 35034 ft 497 kts 31°
2026-05-06 10:10 29.38005 130.27307 35043 ft 499 kts 33°
2026-05-06 10:10 29.43775 130.31724 35036 ft 499 kts 32°
2026-05-06 10:11 29.49584 130.36118 35040 ft 500 kts 32°
2026-05-06 10:11 29.55411 130.40484 35038 ft 501 kts 32°
2026-05-06 10:12 29.61253 130.44859 35037 ft 501 kts 32°
2026-05-06 10:12 29.67090 130.49238 35041 ft 501 kts 32°
2026-05-06 10:13 29.72933 130.53632 35042 ft 502 kts 31°
2026-05-06 10:13 29.78777 130.58032 35044 ft 502 kts 31°
2026-05-06 10:14 29.84574 130.62404 35047 ft 502 kts 31°
2026-05-06 10:14 29.90418 130.66817 35049 ft 502 kts 31°
2026-05-06 10:15 29.96254 130.71231 35050 ft 502 kts 31°
2026-05-06 10:15 30.02100 130.75658 35056 ft 502 kts 31°
2026-05-06 10:16 30.07941 130.80086 35059 ft 503 kts 31°
2026-05-06 10:16 30.13795 130.84532 35061 ft 504 kts 31°
2026-05-06 10:17 30.19648 130.88985 35064 ft 504 kts 31°
2026-05-06 10:17 30.25517 130.93456 35064 ft 505 kts 31°
2026-05-06 10:18 30.31394 130.97940 35064 ft 506 kts 31°
2026-05-06 10:18 30.37270 131.02431 35061 ft 507 kts 31°
2026-05-06 10:19 30.43161 131.06940 35048 ft 508 kts 31°
2026-05-06 10:19 30.49051 131.11453 35061 ft 508 kts 31°
2026-05-06 10:20 30.54954 131.15983 35058 ft 509 kts 31°
2026-05-06 10:20 30.60855 131.20521 35062 ft 509 kts 31°
2026-05-06 10:21 30.66767 131.25074 35062 ft 510 kts 31°
2026-05-06 10:21 30.72674 131.29630 35067 ft 510 kts 31°
2026-05-06 10:22 30.77589 131.33427 35079 ft 510 kts 31°
2026-05-06 10:22 30.83503 131.38002 35086 ft 510 kts 31°
2026-05-06 10:23 30.89407 131.42575 35086 ft 510 kts 30°
2026-05-06 10:23 30.95317 131.47161 35084 ft 510 kts 30°
2026-05-06 10:24 31.01224 131.51750 35082 ft 510 kts 30°
2026-05-06 10:24 31.07126 131.56343 35088 ft 510 kts 30°
2026-05-06 10:25 31.13012 131.60930 35088 ft 510 kts 30°
2026-05-06 10:25 31.18910 131.65534 35089 ft 510 kts 30°
2026-05-06 10:26 31.24807 131.70146 35093 ft 510 kts 30°
2026-05-06 10:26 31.30699 131.74758 35092 ft 510 kts 30°
2026-05-06 10:27 31.36600 131.79386 35090 ft 511 kts 30°
2026-05-06 10:27 31.42495 131.84018 35092 ft 511 kts 30°
2026-05-06 10:28 31.48402 131.88668 35089 ft 512 kts 30°
2026-05-06 10:28 31.54306 131.93323 35081 ft 512 kts 30°
2026-05-06 10:29 31.60221 131.97994 35094 ft 512 kts 30°
2026-05-06 10:29 31.66132 132.02669 35094 ft 513 kts 30°
2026-05-06 10:30 31.72015 132.07329 35088 ft 514 kts 30°
2026-05-06 10:30 31.77983 132.12063 35088 ft 514 kts 30°
2026-05-06 10:31 31.83868 132.16739 35095 ft 515 kts 29°
2026-05-06 10:31 31.89804 132.21464 35088 ft 515 kts 29°
2026-05-06 10:32 31.95734 132.26191 35092 ft 515 kts 29°
2026-05-06 10:32 32.01674 132.30933 35092 ft 515 kts 29°
2026-05-06 10:33 32.07605 132.35677 35094 ft 516 kts 29°
2026-05-06 10:33 32.13523 132.40481 35089 ft 518 kts 32°
2026-05-06 10:34 32.19202 132.45741 35093 ft 519 kts 35°
2026-05-06 10:34 32.24787 132.51146 35092 ft 519 kts 35°
2026-05-06 10:35 32.30400 132.56533 35093 ft 519 kts 35°
2026-05-06 10:35 32.36026 132.61883 35094 ft 519 kts 34°
2026-05-06 10:36 32.41664 132.67237 35096 ft 519 kts 34°
2026-05-06 10:36 32.47293 132.72595 35096 ft 520 kts 34°
2026-05-06 10:37 32.52927 132.77970 35103 ft 520 kts 34°
2026-05-06 10:37 32.58563 132.83357 35103 ft 520 kts 34°
2026-05-06 10:38 32.64194 132.88749 35102 ft 521 kts 35°
2026-05-06 10:38 32.69848 132.94171 34572 ft 526 kts 35°
2026-05-06 10:39 32.72679 132.96890 34194 ft 521 kts 35°
2026-05-06 10:39 32.75396 132.99743 33714 ft 522 kts 43°
2026-05-06 10:39 32.77762 133.03002 33302 ft 518 kts 54°
2026-05-06 10:39 32.79834 133.06474 32925 ft 514 kts 55°
2026-05-06 10:40 32.81856 133.09970 32491 ft 512 kts 55°
2026-05-06 10:40 32.83862 133.13451 32082 ft 509 kts 55°
2026-05-06 10:40 32.85863 133.16893 31676 ft 506 kts 54°
2026-05-06 10:40 32.87874 133.20314 31274 ft 503 kts 54°
2026-05-06 10:41 32.89883 133.23709 30868 ft 500 kts 53°
2026-05-06 10:41 32.91887 133.27083 30469 ft 498 kts 53°
2026-05-06 10:41 32.93883 133.30444 30051 ft 496 kts 53°
2026-05-06 10:41 32.95861 133.33779 29604 ft 492 kts 53°
2026-05-06 10:42 32.97802 133.37057 29159 ft 489 kts 53°
2026-05-06 10:42 32.99781 133.40404 28726 ft 485 kts 53°
2026-05-06 10:42 33.01684 133.43628 28315 ft 481 kts 53°
2026-05-06 10:42 33.03623 133.46914 27911 ft 477 kts 53°
2026-05-06 10:43 33.05491 133.50088 27653 ft 470 kts 53°
2026-05-06 10:43 33.07351 133.53257 27402 ft 462 kts 53°
2026-05-06 10:43 33.09178 133.56371 27115 ft 457 kts 53°
2026-05-06 10:44 33.12795 133.62543 26367 ft 451 kts 53°
2026-05-06 10:44 33.14582 133.65594 25965 ft 448 kts 53°
2026-05-06 10:44 33.16365 133.68642 25582 ft 446 kts 53°
2026-05-06 10:44 33.18140 133.71680 25177 ft 445 kts 53°
2026-05-06 10:45 33.19902 133.74696 24776 ft 443 kts 53°
2026-05-06 10:45 33.21662 133.77712 24380 ft 441 kts 53°
2026-05-06 10:45 33.23414 133.80718 23973 ft 440 kts 53°
2026-05-06 10:45 33.25152 133.83702 23558 ft 438 kts 53°
2026-05-06 10:46 33.26886 133.86681 23126 ft 435 kts 53°
2026-05-06 10:46 33.28600 133.89627 22712 ft 431 kts 54°
2026-05-06 10:46 33.30303 133.92557 22317 ft 426 kts 54°
2026-05-06 10:46 33.31985 133.95451 22029 ft 420 kts 54°
2026-05-06 10:47 33.33631 133.98285 21771 ft 412 kts 54°
2026-05-06 10:47 33.35254 134.01080 21517 ft 405 kts 54°
2026-05-06 10:47 33.36852 134.03833 21244 ft 399 kts 54°
2026-05-06 10:47 33.38426 134.06547 20900 ft 396 kts 54°
2026-05-06 10:48 33.39986 134.09239 20532 ft 393 kts 54°
2026-05-06 10:48 33.41540 134.11922 20178 ft 391 kts 54°
2026-05-06 10:48 33.43083 134.14590 19805 ft 388 kts 54°
2026-05-06 10:48 33.44615 134.17241 19437 ft 385 kts 54°
2026-05-06 10:49 33.46130 134.19862 19087 ft 382 kts 55°
2026-05-06 10:49 33.47634 134.22470 18792 ft 377 kts 55°
2026-05-06 10:49 33.49102 134.25028 18560 ft 370 kts 55°
2026-05-06 10:49 33.50554 134.27562 18203 ft 367 kts 55°
2026-05-06 10:50 33.51992 134.30076 17821 ft 364 kts 55°
2026-05-06 10:50 33.53415 134.32562 17452 ft 361 kts 55°
2026-05-06 10:50 33.54828 134.35035 17090 ft 358 kts 55°
2026-05-06 10:50 33.56229 134.37487 16732 ft 355 kts 55°
2026-05-06 10:51 33.57619 134.39919 16378 ft 352 kts 56°
2026-05-06 10:51 33.58997 134.42332 16023 ft 349 kts 56°
2026-05-06 10:51 33.60378 134.44716 15670 ft 346 kts 51°
2026-05-06 10:51 33.62160 134.46629 15259 ft 344 kts 29°
2026-05-06 10:52 33.64304 134.47825 14952 ft 339 kts 21°
2026-05-06 10:52 33.66490 134.48865 14603 ft 337 kts 20°
2026-05-06 10:52 33.68673 134.49870 14259 ft 335 kts 20°
2026-05-06 10:52 33.70844 134.50869 13916 ft 333 kts 20°
2026-05-06 10:53 33.73005 134.51875 13514 ft 332 kts 20°
2026-05-06 10:53 33.75147 134.52881 13148 ft 330 kts 21°
2026-05-06 10:53 33.77278 134.53891 12788 ft 328 kts 21°
2026-05-06 10:53 33.79393 134.54898 12434 ft 326 kts 21°
2026-05-06 10:54 33.81495 134.55902 12075 ft 324 kts 21°
2026-05-06 10:54 33.83575 134.56897 11739 ft 321 kts 22°
2026-05-06 10:54 33.85647 134.57891 11401 ft 320 kts 22°
2026-05-06 10:54 33.87709 134.58879 11057 ft 318 kts 22°
2026-05-06 10:55 33.89761 134.59864 10715 ft 317 kts 22°
2026-05-06 10:55 33.91805 134.60846 10370 ft 316 kts 22°
2026-05-06 10:55 33.93824 134.61817 10187 ft 309 kts 22°
2026-05-06 10:55 33.95796 134.62765 10031 ft 302 kts 22°
2026-05-06 10:56 33.97742 134.63701 9705 ft 300 kts 23°
2026-05-06 10:56 33.99673 134.64631 9396 ft 299 kts 22°
2026-05-06 10:56 34.01573 134.65546 9095 ft 297 kts 23°
2026-05-06 10:56 34.03486 134.66469 8785 ft 295 kts 23°
2026-05-06 10:57 34.05389 134.67386 8492 ft 293 kts 23°
2026-05-06 10:57 34.07275 134.68296 8196 ft 292 kts 23°
2026-05-06 10:57 34.09155 134.69203 7902 ft 290 kts 22°
2026-05-06 10:57 34.11024 134.70105 7614 ft 288 kts 23°
2026-05-06 10:58 34.12882 134.71002 7322 ft 287 kts 22°
2026-05-06 10:58 34.14645 134.72073 7017 ft 284 kts 41°
2026-05-06 10:58 34.15903 134.73850 6793 ft 276 kts 61°
2026-05-06 10:58 34.16835 134.75865 6554 ft 273 kts 63°
2026-05-06 10:59 34.17727 134.77880 6285 ft 271 kts 64°
2026-05-06 10:59 34.18610 134.79879 6028 ft 269 kts 64°
2026-05-06 10:59 34.19489 134.81854 5788 ft 266 kts 64°
2026-05-06 10:59 34.20366 134.83812 5551 ft 263 kts 64°
2026-05-06 11:00 34.21236 134.85748 5310 ft 261 kts 64°
2026-05-06 11:00 34.22101 134.87664 5086 ft 259 kts 64°
2026-05-06 11:00 34.22960 134.89568 4850 ft 259 kts 64°
2026-05-06 11:00 34.23826 134.91485 4616 ft 261 kts 64°
2026-05-06 11:01 34.24698 134.93415 4382 ft 262 kts 64°
2026-05-06 11:01 34.25671 134.95285 4131 ft 265 kts 55°
2026-05-06 11:01 34.26839 134.97004 3898 ft 265 kts 52°
2026-05-06 11:01 34.28037 134.98700 3664 ft 265 kts 52°
2026-05-06 11:02 34.29225 135.00410 3408 ft 265 kts 53°
2026-05-06 11:02 34.30396 135.02121 3168 ft 262 kts 53°
2026-05-06 11:02 34.31547 135.03818 2932 ft 260 kts 53°
2026-05-06 11:02 34.32684 135.05506 2701 ft 258 kts 55°
2026-05-06 11:03 34.33449 135.07416 2450 ft 250 kts 79°
2026-05-06 11:03 34.33873 135.09436 2245 ft 246 kts 79°
2026-05-06 11:03 34.34333 135.11416 2068 ft 242 kts 71°
2026-05-06 11:03 34.35187 135.13116 1944 ft 232 kts 57°
2026-05-06 11:04 34.36152 135.14615 1651 ft 219 kts 54°
2026-05-06 11:04 34.37089 135.16003 1366 ft 207 kts 53°
2026-05-06 11:04 34.37976 135.17322 1095 ft 196 kts 53°
2026-05-06 11:04 34.38803 135.18555 909 ft 179 kts 53°
2026-05-06 11:05 34.39533 135.19646 747 ft 159 kts 53°
2026-05-06 11:05 34.40210 135.20661 532 ft 148 kts 51°
2026-05-06 11:05 34.40834 135.21594 324 ft 141 kts 51°
2026-05-06 11:05 34.41448 135.22510 123 ft 139 kts 50°
2026-05-06 11:06 34.42053 135.23408 16 ft 130 kts 50°